Time,TemperatureF,DewpointF,PressureIn,WindDirection,WindDirectionDegrees,WindSpeedMPH,WindSpeedGustMPH,Humidity,HourlyPrecipIn,Conditions,Clouds,dailyrainin,SoftwareType,DateUTC
2013-06-12 00:12:00,72.3,68.5,29.91,SW,225,0.0,-999.0,88,-99.99,,,0.00,Acu-Link.com,2013-06-12 04:12:00,
2013-06-12 00:27:00,72.0,68.6,29.91,SW,225,0.0,-999.0,89,-99.99,,,0.00,Acu-Link.com,2013-06-12 04:27:00,
2013-06-12 00:43:00,71.4,68.6,29.91,SW,225,0.0,-999.0,91,-99.99,,,0.00,Acu-Link.com,2013-06-12 04:43:00,
2013-06-12 00:58:00,70.7,69.5,29.91,South,180,0.0,-999.0,96,-99.99,,,0.00,Acu-Link.com,2013-06-12 04:58:00,
2013-06-12 01:13:00,70.5,69.0,29.91,SSW,202,0.0,-999.0,95,-99.99,,,0.00,Acu-Link.com,2013-06-12 05:13:00,
2013-06-12 01:29:00,70.0,68.8,29.90,SW,225,0.0,-999.0,96,-99.99,,,0.00,Acu-Link.com,2013-06-12 05:29:00,
2013-06-12 01:44:00,69.6,68.7,29.89,SSW,202,0.0,-999.0,97,-99.99,,,0.00,Acu-Link.com,2013-06-12 05:44:00,
2013-06-12 01:59:00,69.3,68.4,29.90,WNW,292,0.0,-999.0,97,-99.99,,,0.00,Acu-Link.com,2013-06-12 05:59:00,
2013-06-12 02:15:00,68.9,68.3,29.89,WNW,292,0.0,-999.0,98,-99.99,,,0.00,Acu-Link.com,2013-06-12 06:15:00,
2013-06-12 02:30:00,68.9,68.6,29.89,WNW,292,0.0,-999.0,99,-99.99,,,0.00,Acu-Link.com,2013-06-12 06:30:00,
2013-06-12 02:45:00,68.9,68.6,29.88,WNW,292,0.0,-999.0,99,-99.99,,,0.00,Acu-Link.com,2013-06-12 06:45:00,
2013-06-12 03:05:00,68.7,68.4,29.87,SE,135,0.0,-999.0,99,-99.99,,,0.00,Acu-Link.com,2013-06-12 07:05:00,
2013-06-12 03:20:00,68.4,68.1,29.88,ESE,112,0.0,-999.0,99,-99.99,,,0.00,Acu-Link.com,2013-06-12 07:20:00,
2013-06-12 03:35:00,68.2,67.9,29.88,SW,225,0.0,-999.0,99,-99.99,,,0.00,Acu-Link.com,2013-06-12 07:35:00,
2013-06-12 03:50:00,67.8,67.5,29.88,SSE,157,0.0,-999.0,99,-99.99,,,0.00,Acu-Link.com,2013-06-12 07:50:00,
2013-06-12 04:06:00,67.6,67.3,29.87,SE,135,0.0,-999.0,99,-99.99,,,0.00,Acu-Link.com,2013-06-12 08:06:00,
2013-06-12 04:21:00,67.5,67.2,29.87,SSW,202,0.0,-999.0,99,-99.99,,,0.00,Acu-Link.com,2013-06-12 08:21:00,
2013-06-12 04:37:00,67.3,67.0,29.87,South,180,0.0,-999.0,99,-99.99,,,0.00,Acu-Link.com,2013-06-12 08:37:00,
2013-06-12 04:52:00,66.9,66.6,29.86,South,180,0.0,-999.0,99,-99.99,,,0.00,Acu-Link.com,2013-06-12 08:52:00,
2013-06-12 05:07:00,66.7,66.4,29.88,South,180,0.0,-999.0,99,-99.99,,,0.00,Acu-Link.com,2013-06-12 09:07:00,
2013-06-12 05:22:00,66.7,66.4,29.88,SSW,202,0.0,-999.0,99,-99.99,,,0.00,Acu-Link.com,2013-06-12 09:22:00,
2013-06-12 05:37:00,66.6,66.3,29.87,South,180,0.0,-999.0,99,-99.99,,,0.00,Acu-Link.com,2013-06-12 09:37:00,
2013-06-12 05:53:00,66.2,65.9,29.88,WSW,247,0.0,-999.0,99,-99.99,,,0.00,Acu-Link.com,2013-06-12 09:53:00,
2013-06-12 06:09:00,66.0,65.7,29.88,WSW,247,0.0,-999.0,99,-99.99,,,0.00,Acu-Link.com,2013-06-12 10:09:00,
2013-06-12 06:24:00,66.0,65.7,29.89,SSE,157,0.0,-999.0,99,-99.99,,,0.00,Acu-Link.com,2013-06-12 10:24:00,
2013-06-12 06:39:00,66.0,65.7,29.89,South,180,0.0,-999.0,99,-99.99,,,0.00,Acu-Link.com,2013-06-12 10:39:00,
2013-06-12 06:54:00,66.0,65.7,29.89,South,180,0.0,-999.0,99,-99.99,,,0.00,Acu-Link.com,2013-06-12 10:54:00,
2013-06-12 07:09:00,66.2,65.9,29.90,NW,315,0.0,-999.0,99,-99.99,,,0.00,Acu-Link.com,2013-06-12 11:09:00,
2013-06-12 07:25:00,66.7,66.4,29.90,WNW,292,0.0,-999.0,99,-99.99,,,0.00,Acu-Link.com,2013-06-12 11:25:00,
2013-06-12 07:40:00,67.5,67.2,29.90,SSW,202,0.0,-999.0,99,-99.99,,,0.00,Acu-Link.com,2013-06-12 11:40:00,
2013-06-12 07:56:00,67.6,67.3,29.91,SSW,202,0.0,-999.0,99,-99.99,,,0.00,Acu-Link.com,2013-06-12 11:56:00,
2013-06-12 08:11:00,68.2,67.9,29.92,West,270,0.0,-999.0,99,-99.99,,,0.00,Acu-Link.com,2013-06-12 12:11:00,
2013-06-12 08:26:00,68.7,68.4,29.92,SW,225,0.0,-999.0,99,-99.99,,,0.00,Acu-Link.com,2013-06-12 12:26:00,
2013-06-12 08:41:00,70.5,70.2,29.92,South,180,0.0,-999.0,99,-99.99,,,0.00,Acu-Link.com,2013-06-12 12:41:00,
2013-06-12 08:57:00,72.0,71.1,29.92,SSW,202,0.0,-999.0,97,-99.99,,,0.00,Acu-Link.com,2013-06-12 12:57:00,
2013-06-12 09:12:00,73.0,70.5,29.92,WSW,247,0.0,-999.0,92,-99.99,,,0.00,Acu-Link.com,2013-06-12 13:12:00,
2013-06-12 09:27:00,74.5,70.7,29.91,WSW,247,0.0,-999.0,88,-99.99,,,0.00,Acu-Link.com,2013-06-12 13:27:00,
2013-06-12 09:43:00,76.3,71.4,29.92,ENE,67,0.0,-999.0,85,-99.99,,,0.00,Acu-Link.com,2013-06-12 13:43:00,
2013-06-12 09:58:00,77.2,72.3,29.92,East,90,0.0,-999.0,85,-99.99,,,0.00,Acu-Link.com,2013-06-12 13:58:00,
2013-06-12 10:13:00,78.8,72.1,29.92,NW,315,0.0,-999.0,80,-99.99,,,0.00,Acu-Link.com,2013-06-12 14:13:00,
2013-06-12 10:28:00,79.0,73.0,29.92,ESE,112,0.0,-999.0,82,-99.99,,,0.00,Acu-Link.com,2013-06-12 14:28:00,
2013-06-12 10:44:00,79.2,73.2,29.92,SE,135,0.0,-999.0,82,-99.99,,,0.00,Acu-Link.com,2013-06-12 14:44:00,
2013-06-12 10:59:00,79.3,74.4,29.92,SW,225,0.0,-999.0,85,-99.99,,,0.00,Acu-Link.com,2013-06-12 14:59:00,
2013-06-12 11:14:00,81.0,73.9,29.92,NNE,22,0.0,-999.0,79,-99.99,,,0.00,Acu-Link.com,2013-06-12 15:14:00,
2013-06-12 11:29:00,82.9,73.3,29.92,NE,45,0.0,-999.0,73,-99.99,,,0.00,Acu-Link.com,2013-06-12 15:29:00,
2013-06-12 11:45:00,84.0,74.0,29.92,SSW,202,0.0,-999.0,72,-99.99,,,0.00,Acu-Link.com,2013-06-12 15:45:00,
2013-06-12 12:00:00,84.7,72.9,29.92,East,90,0.0,-999.0,68,-99.99,,,0.00,Acu-Link.com,2013-06-12 16:00:00,
2013-06-12 12:15:00,85.3,73.5,29.92,SW,225,0.0,-999.0,68,-99.99,,,0.00,Acu-Link.com,2013-06-12 16:15:00,
2013-06-12 12:31:00,86.0,73.3,29.92,WNW,292,0.0,-999.0,66,-99.99,,,0.00,Acu-Link.com,2013-06-12 16:31:00,
2013-06-12 12:46:00,88.0,75.2,29.91,WNW,292,0.0,-999.0,66,-99.99,,,0.00,Acu-Link.com,2013-06-12 16:46:00,
2013-06-12 13:01:00,85.3,76.5,29.91,West,270,0.0,-999.0,75,-99.99,,,0.00,Acu-Link.com,2013-06-12 17:01:00,
2013-06-12 13:17:00,87.3,78.0,29.90,SSW,202,0.0,-999.0,74,-99.99,,,0.00,Acu-Link.com,2013-06-12 17:17:00,
2013-06-12 13:32:00,85.3,78.0,29.91,South,180,0.0,-999.0,79,-99.99,,,0.00,Acu-Link.com,2013-06-12 17:32:00,
2013-06-12 13:48:00,87.6,78.7,29.89,West,270,0.0,-999.0,75,-99.99,,,0.00,Acu-Link.com,2013-06-12 17:48:00,
2013-06-12 14:03:00,88.9,76.5,29.89,ENE,67,0.0,-999.0,67,-99.99,,,0.00,Acu-Link.com,2013-06-12 18:03:00,
2013-06-12 14:18:00,92.7,77.7,29.87,South,180,0.0,-999.0,62,-99.99,,,0.00,Acu-Link.com,2013-06-12 18:18:00,
2013-06-12 14:34:00,91.8,77.8,29.87,ENE,67,0.0,-999.0,64,-99.99,,,0.00,Acu-Link.com,2013-06-12 18:34:00,
2013-06-12 14:49:00,91.8,77.8,29.88,East,90,0.0,-999.0,64,-99.99,,,0.00,Acu-Link.com,2013-06-12 18:49:00,
2013-06-12 15:04:00,91.9,77.9,29.86,NE,45,0.0,-999.0,64,-99.99,,,0.00,Acu-Link.com,2013-06-12 19:04:00,
2013-06-12 15:19:00,92.5,78.5,29.86,West,270,0.0,-999.0,64,-99.99,,,0.00,Acu-Link.com,2013-06-12 19:19:00,
2013-06-12 15:35:00,92.7,77.7,29.85,SSE,157,0.0,-999.0,62,-99.99,,,0.00,Acu-Link.com,2013-06-12 19:35:00,
2013-06-12 15:50:00,93.6,78.6,29.86,SSW,202,0.0,-999.0,62,-99.99,,,0.00,Acu-Link.com,2013-06-12 19:50:00,
2013-06-12 16:05:00,88.9,79.5,29.86,SSW,202,0.0,-999.0,74,-99.99,,,0.00,Acu-Link.com,2013-06-12 20:05:00,
2013-06-12 16:21:00,92.1,77.2,29.85,SSW,202,0.0,-999.0,62,-99.99,,,0.00,Acu-Link.com,2013-06-12 20:21:00,
2013-06-12 16:36:00,91.8,77.4,29.84,West,270,0.0,-999.0,63,-99.99,,,0.00,Acu-Link.com,2013-06-12 20:36:00,
2013-06-12 16:51:00,91.0,77.6,29.83,NW,315,0.0,-999.0,65,-99.99,,,0.00,Acu-Link.com,2013-06-12 20:51:00,
2013-06-12 17:06:00,90.1,78.5,29.84,South,180,0.0,-999.0,69,-99.99,,,0.00,Acu-Link.com,2013-06-12 21:06:00,
2013-06-12 17:22:00,89.8,78.2,29.84,West,270,0.0,-999.0,69,-99.99,,,0.00,Acu-Link.com,2013-06-12 21:22:00,
2013-06-12 17:37:00,88.9,76.5,29.83,West,270,0.0,-999.0,67,-99.99,,,0.00,Acu-Link.com,2013-06-12 21:37:00,
2013-06-12 17:53:00,88.2,77.1,29.83,SW,225,0.0,-999.0,70,-99.99,,,0.00,Acu-Link.com,2013-06-12 21:53:00,
2013-06-12 18:08:00,87.6,77.4,29.83,South,180,0.0,-999.0,72,-99.99,,,0.00,Acu-Link.com,2013-06-12 22:08:00,
2013-06-12 18:23:00,86.9,78.0,29.83,ESE,112,0.0,-999.0,75,-99.99,,,0.00,Acu-Link.com,2013-06-12 22:23:00,
2013-06-12 18:39:00,86.5,77.2,29.83,South,180,0.0,-999.0,74,-99.99,,,0.00,Acu-Link.com,2013-06-12 22:39:00,
2013-06-12 18:54:00,86.0,77.1,29.82,SSW,202,0.0,-999.0,75,-99.99,,,0.00,Acu-Link.com,2013-06-12 22:54:00,
2013-06-12 19:09:00,85.6,76.7,29.83,SW,225,0.0,-999.0,75,-99.99,,,0.00,Acu-Link.com,2013-06-12 23:09:00,
2013-06-12 19:24:00,85.3,76.9,29.83,East,90,0.0,-999.0,76,-99.99,,,0.00,Acu-Link.com,2013-06-12 23:24:00,
2013-06-12 19:40:00,84.7,76.7,29.82,NE,45,0.0,-999.0,77,-99.99,,,0.00,Acu-Link.com,2013-06-12 23:40:00,
2013-06-12 19:55:00,84.2,76.6,29.83,South,180,0.0,-999.0,78,-99.99,,,0.00,Acu-Link.com,2013-06-12 23:55:00,
2013-06-12 20:10:00,83.3,76.1,29.83,SSW,202,0.0,-999.0,79,-99.99,,,0.00,Acu-Link.com,2013-06-13 00:10:00,
2013-06-12 20:26:00,82.9,75.7,29.83,SSW,202,0.0,-999.0,79,-99.99,,,0.00,Acu-Link.com,2013-06-13 00:26:00,
2013-06-12 20:41:00,82.4,75.6,29.82,East,90,0.0,-999.0,80,-99.99,,,0.00,Acu-Link.com,2013-06-13 00:41:00,
2013-06-12 20:56:00,81.5,75.5,29.83,ESE,112,0.0,-999.0,82,-99.99,,,0.00,Acu-Link.com,2013-06-13 00:56:00,
2013-06-12 21:11:00,81.1,75.4,29.84,SSW,202,0.0,-999.0,83,-99.99,,,0.00,Acu-Link.com,2013-06-13 01:11:00,
2013-06-12 21:27:00,80.6,75.3,29.83,SSW,202,0.0,-999.0,84,-99.99,,,0.00,Acu-Link.com,2013-06-13 01:27:00,
2013-06-12 21:42:00,80.2,75.3,29.84,SSW,202,0.0,-999.0,85,-99.99,,,0.00,Acu-Link.com,2013-06-13 01:42:00,
2013-06-12 21:57:00,79.9,75.0,29.84,South,180,0.0,-999.0,85,-99.99,,,0.00,Acu-Link.com,2013-06-13 01:57:00,
2013-06-12 22:13:00,79.5,75.3,29.84,South,180,0.0,-999.0,87,-99.99,,,0.00,Acu-Link.com,2013-06-13 02:13:00,
2013-06-12 22:28:00,79.3,75.4,29.84,SSW,202,0.0,-999.0,88,-99.99,,,0.00,Acu-Link.com,2013-06-13 02:28:00,
2013-06-12 22:43:00,79.0,75.5,29.84,SSW,202,0.0,-999.0,89,-99.99,,,0.00,Acu-Link.com,2013-06-13 02:43:00,
2013-06-12 22:58:00,78.8,75.6,29.86,SSW,202,0.0,-999.0,90,-99.99,,,0.00,Acu-Link.com,2013-06-13 02:58:00,
2013-06-12 23:14:00,78.4,75.5,29.85,SSW,202,0.0,-999.0,91,-99.99,,,0.00,Acu-Link.com,2013-06-13 03:14:00,
2013-06-12 23:29:00,78.3,75.4,29.85,SSW,202,0.0,-999.0,91,-99.99,,,0.00,Acu-Link.com,2013-06-13 03:29:00,
2013-06-12 23:44:00,77.7,75.5,29.84,SSW,202,0.0,-999.0,93,-99.99,,,0.00,Acu-Link.com,2013-06-13 03:44:00,
2013-06-12 23:59:00,77.5,75.6,29.84,SSW,202,0.0,-999.0,94,-99.99,,,0.00,Acu-Link.com,2013-06-13 03:59:00,